Weather Roundup
Issued by NWS Chicago, IL

Home | Current Version | Previous Version | Graphics & Text | Print | Product List | Glossary On
Versions: 1 2 3 4 5 6 7 8 9 10 11 12 13 14 15 16 17 18 19 20 21 22 23 24 25 26 27 28 29 30 31 32 33 34 35 36 37 38 39 40 41 42 43 44 45 46 47 48 49 50
000
NZUS59 KLOT 260810
HRRLOT

CHICAGO AREA WEATHER ROUNDUP
NATIONAL WEATHER SERVICE CHICAGO/ROMEOVILLE IL
300 AM CDT SAT JUL 26 2014

NOTE: "FAIR" INDICATES FEW OR NO CLOUDS BELOW 12,000 FEET WITH NO
SIGNIFICANT WEATHER AND/OR OBSTRUCTIONS TO VISIBILITY.

* THESE STATIONS ARE NOT UNDER NWS QUALITY CONTROL. THEY ALSO MAY NOT
  REPORT WEATHER SUCH AS PRECIPITATION OR FOG.

ILZ005-006-012>014-019>023-260900-
NORTHEAST ILLINOIS

CITY           SKY/WX    TMP DP  RH WIND       PRES   REMARKS
OHARE          CLEAR     68  57  68 SW6       29.87F
MIDWAY         CLOUDY    71  60  68 SW9       29.87F
AURORA         CLOUDY    68  59  73 S6        29.89F
LANSING*       CLOUDY    68  58  71 SW8       29.89F
JOLIET*        MOCLDY    68  59  73 S3        29.89F
WAUKEGAN       CLEAR     63  58  83 CALM      29.87F
DUPAGE AIRPORT CLOUDY    67  59  75 S8        29.88F
WHEELING       PTCLDY    70  59  68 S5        29.89F
KANKAKEE*      CLOUDY    68  61  78 S8        29.90F
MORRIS*        CLOUDY    69  61  76 S8        29.89F
LEWIS AIRPORT* CLOUDY    68  59  72 S9        29.89S
NORTHERLY IS     N/A     70  58  65 S5          N/A
$$

WIZ051-052-058>065-066-070>072-260900-
SOUTHEAST WISCONSIN

CITY           SKY/WX    TMP DP  RH WIND       PRES   REMARKS
MILWAUKEE      PTCLDY    64  59  83 SW6       29.88F
KENOSHA*       CLEAR     60  58  92 CALM      29.88F
RACINE*        CLEAR     63  59  87 W3        29.89F
BURLINGTON     CLEAR     56  56  98 CALM      29.88F FOG
WAUKESHA       CLEAR     59  57  94 CALM      29.89F
WEST BEND      CLEAR     63  57  82 SW5       29.88S
$$

INZ001>003-010>013-019-020-260900-
NORTHWEST INDIANA

CITY           SKY/WX    TMP DP  RH WIND       PRES   REMARKS
GARY*          CLOUDY    70  60  69 S6        29.89F
MICHIGAN CITY* NOT AVBL
RENSSELAER*    NOT AVBL
VALPARAISO     CLOUDY    65  59  81 S5        29.91F
$$

LMZ740>746-260900-
SOUTHERN LAKE MICHIGAN

STATION/POSITION TIME  SKY/WX   TEMP WIND        PRES    VSBY
                                AIR  DIR/SP/G
                 (UTC)          (F)  (DEG/KT/KT) (MB)    (MI)
HARRISON CRIB    0800            69  200/ 13/ 14   N/A
BURNHAM HARBOR   0800            70  220/  5/  9   N/A
CALUMET HARBOR   0800            69  200/  5/  9 1010.7F
BURNS HARBOR     NOT AVBL
MICHIGAN CITY    0800            66  170/  4/  7   N/A
$$

ABBREVIATIONS USED IN REMARKS
   TC - TEMPERATURE IN CELSIUS
  WCI - WIND CHILL INDEX
   HX - HEAT INDEX
  VSB - VISIBILITY
$$



USA.gov is the U.S. government's official web portal to all federal, state and local government web resources and services.